Regional Weather Roundup
Issued by NWS State College, PA

Home | Current Version | Previous Version | Text Only | Print | Product List | Glossary On
Versions: 1 2 3 4 5 6 7 8 9 10 11 12 13 14 15 16 17 18 19 20 21 22 23 24 25 26 27 28 29 30 31 32 33 34 35 36 37 38 39 40 41 42 43 44 45 46 47 48 49 50
000
ASUS41 KCTP 270110
RWRCTP

REGIONAL WEATHER ROUNDUP
NATIONAL WEATHER SERVICE STATE COLLEGE PA
900 PM EDT TUE JUL 26 2016

Note: "fair" indicates few or no clouds below 12,000 feet with no
significant weather and/or obstructions to visibility.

* = STATION THAT DOES NOT REPORT PRECIPITATION /E.G. RAIN...SNOW...ETC/
    THUNDER OR FOG.

PAZ002>004-007>009-013>016-020>023-029>032-270200-
WESTERN PENNSYLVANIA

CITY           SKY/WX    TMP DP  RH WIND       PRES   REMARKS
ERIE           CLEAR     75  62  64 CALM      30.01R
MEADVILLE      PTCLDY    70  57  63 CALM      30.04R
FRANKLIN*      PTCLDY    72  57  60 NW3       30.06R
NEW CASTLE     FAIR      76  62  62 N5        30.03R
BEAVER COUNTY  CLEAR     77  59  53 N8        30.02R
BUTLER*        CLOUDY    73  61  64 N3        30.04S
PITTSBURGH INT CLOUDY    80  58  46 NE5       30.00S
PITTSBURGH     CLOUDY    79  58  48 VRB5      30.00R
INDIANA*       CLEAR     77  61  57 N3        30.04S
LATROBE        MOCLDY    79  63  57 CALM      30.01R
WASHINGTON CO* CLOUDY    79  64  61 N3        30.01R
$$

PAZ004>006-010>012-017>019-024>028-033>037-041-042-045-046-049>053-270200-
CENTRAL PENNSYLVANIA

CITY           SKY/WX    TMP DP  RH WIND       PRES   REMARKS
BRADFORD       CLOUDY    68  57  68 NW3       30.05S
DUBOIS         CLOUDY    74  57  55 NW5       30.03R
CLEARFIELD     CLOUDY    74  58  57 NW8       30.01R
JOHNSTOWN      CLOUDY    76  56  49 N8        30.05S
ALTOONA        CLOUDY    79  56  45 NW3       30.01R
STATE COLLEGE  CLEAR     81  57  44 W6        29.98R
WILLIAMSPORT   CLOUDY    78  62  57 CALM      29.92R
SELINSGROVE    PTCLDY    74  73  97 CALM      29.92R
FT INDIANTOWN  CLOUDY    76  68  74 N1        29.92R
CAPITAL CITY   PTCLDY    85  70  60 CALM      29.90S
HARRISBURG     CLOUDY    83  75  77 E5        29.90R
YORK           CLOUDY    81  72  74 CALM      29.92R
$$

PAZ038>040-043-044-047-048-054-055-060>062-067>071-270200-
EASTERN PENNSYLVANIA

CITY           SKY/WX    TMP DP  RH WIND       PRES   REMARKS
SCRANTON       CLEAR     77  61  57 E5        29.95R
MOUNT POCONO   CLEAR     67  60  78 NW3       30.01R
ALLENTOWN      MOCLDY    81  66  60 CALM      29.91R
QUAKERTOWN*    PTCLDY    79  68  69 CALM      29.93S
READING        PTCLDY    83  63  50 CALM      29.90S
LANCASTER      PTCLDY    83  70  64 SW6       29.92R
COATESVILLE    PTCLDY    81  72  74 CALM      29.95S
POTTSTOWN      CLEAR     78  66  66 CALM      29.93S
BLUE BELL      CLEAR     73  70  88 CALM      29.91R
DOYLESTOWN     PTCLDY    78  65  63 CALM      29.91S
WILLOW GROVE   NOT AVBL
NORTH PHILA    CLEAR     85  68  56 W5        29.92R
PHILADELPHIA   MOCLDY    86  71  60 SW8       29.91S
$$




USA.gov is the U.S. government's official web portal to all federal, state and local government web resources and services.